Gallup, NM

11:57 PM MST on February 24, 2018 (GMT -0700)
Gallup Municipal

Weather History for KGUP - October, 2013

Change the Weather History Date:

Saturday, October 19, 2013

  Actual Average Record
Temperature  
Mean Temperature 42 °F -  
Max Temperature 64 °F 63 °F 81 °F (2003)
Min Temperature 19 °F 27 °F 13 °F (1976)
Degree Days  
Heating Degree Days 24    
Moisture  
Dew Point 15 °F    
Average Humidity 42    
Maximum Humidity 72    
Minimum Humidity 15    
Precipitation  
Precipitation 0.00 in - - ()
Sea Level Pressure  
Sea Level Pressure 30.17 in    
Wind  
Wind Speed 2 mph (North)    
Max Wind Speed 14 mph    
Max Gust Speed 20 mph    
Visibility 10 miles    
Events      
Averages and records for this station are not official NWS values.
T = Trace of Precipitation, MM = Missing Value Source: NWS Daily Summary

Daily Weather History Graph

Daily Weather History Graph

Search for Another Location

Airport or City:

Trip Planner

Search our weather history database for the weather conditions in past years. The results will help you decide how hot, cold, wet, or windy it might be!

Date:

Astronomy

Oct. 19, 2013 Rise Set
Actual Time 7:25 AM MDT 6:34 PM MDT
Civil Twilight 6:59 AM MDT 7:00 PM MDT
Nautical Twilight 6:29 AM MDT 7:29 PM MDT
Astronomical Twilight 6:00 AM MDT 7:59 PM MDT
Moon 7:06 PM MDT (10/19) 8:04 AM MDT (10/19)
Length of Visible Light 12h 00m
Length of Day
11h 09m
Full, 99% of the Moon is Illuminated
Oct 19
Full
Oct 26
Last Quarter
Nov 3
New
Nov 9
First Quarter
Nov 17
Full

Hourly Weather History & Observations

Time (MDT) Temp. Windchill Dew Point Humidity Pressure Visibility Wind Dir Wind Speed Gust Speed Precip Events Conditions
12:53 AM 28.9 °F - 15.1 °F 56% 30.16 in 10.0 mi Calm Calm - N/A   Clear
1:53 AM 21.9 °F - 12.9 °F 68% 30.19 in 10.0 mi Calm Calm - N/A   Clear
2:53 AM 23.0 °F - 14.0 °F 68% 30.20 in 10.0 mi Calm Calm - N/A   Clear
3:53 AM 23.0 °F - 12.9 °F 65% 30.18 in 10.0 mi Calm Calm - N/A   Clear
4:53 AM 21.0 °F - 12.9 °F 71% 30.20 in 10.0 mi Calm Calm - N/A   Clear
5:53 AM 21.9 °F - 12.9 °F 68% 30.22 in 10.0 mi Calm Calm - N/A   Clear
6:53 AM 21.9 °F - 14.0 °F 72% 30.26 in 10.0 mi Calm Calm - N/A   Clear
7:53 AM 19.0 °F 13.9 °F 9.0 °F 65% 30.34 in 10.0 mi East 3.5 mph - N/A   Clear
8:53 AM 33.1 °F 30.0 °F 17.1 °F 52% 30.27 in 10.0 mi NE 3.5 mph - N/A   Clear
9:53 AM 41.0 °F - 18.0 °F 40% 30.27 in 10.0 mi Calm Calm - N/A   Clear
10:53 AM 46.0 °F - 17.1 °F 31% 30.23 in 10.0 mi Calm Calm - N/A   Clear
11:53 AM 54.0 °F - 16.0 °F 22% 30.20 in 10.0 mi West 4.6 mph - N/A   Clear
12:53 PM 57.0 °F - 14.0 °F 18% 30.13 in 10.0 mi Calm Calm - N/A   Clear
1:53 PM 61.0 °F - 14.0 °F 16% 30.11 in 10.0 mi Calm Calm - N/A   Clear
2:53 PM 64.0 °F - 15.1 °F 15% 30.05 in 10.0 mi West 13.8 mph 19.6 mph N/A   Clear
3:53 PM 64.0 °F - 16.0 °F 16% 30.03 in 10.0 mi North 8.1 mph - N/A   Clear
4:53 PM 63.0 °F - 16.0 °F 16% 30.06 in 10.0 mi North 9.2 mph - N/A   Clear
5:53 PM 61.0 °F - 15.1 °F 17% 30.06 in 10.0 mi NNW 8.1 mph - N/A   Clear
6:53 PM 54.0 °F - 16.0 °F 22% 30.12 in 10.0 mi North 6.9 mph - N/A   Clear
7:53 PM 43.0 °F - 16.0 °F 34% 30.24 in 10.0 mi Calm Calm - N/A   Clear
8:53 PM 39.0 °F - 15.1 °F 38% 30.17 in 10.0 mi Calm Calm - N/A   Clear
9:53 PM 34.0 °F - 14.0 °F 44% 30.15 in 10.0 mi Calm Calm - N/A   Clear
10:53 PM 32.0 °F - 15.1 °F 50% 30.14 in 9.0 mi Calm Calm - N/A   Clear
11:53 PM 30.9 °F 27.5 °F 15.1 °F 52% 30.08 in 10.0 mi ENE 3.5 mph - N/A   Clear